Dades meteomassalio
Diari Summary for Noviembre 4, 2017 Units:  English    Metric   Both
« Previous Day
Next Day »
Diari Semanal Mensual Anual Personalitzat
  Maxima: Minima: Mijana:
Temperatura: TemperatureC °F 8.3 °F 13.5 °F
Rosada: DewpointC °F 5.9 °F 9.9 °F
Humitat: Humidity % 55 % 79 %
Velocitat del vent: WindSpeedKMH mph 0.0 mph 5.5 mph
Racha vent: WindSpeedGustKMH mph - -
Vent:- - WSW
Pressio: PressurehPa in 1011.4 in -
Pluja: 2.3 in    
Historical Graphs
 
 
Tabular Data for Noviembre 4, 2017
Time Temperature Dew Point Pressure Wind Wind Speed Wind Gust Humidity Rainfall Rate (Hourly) solar Conditions
TemperatureC °F DewpointC °F PressurehPa in Calm     Humidity % HourlyPrecipMM in SolarRadiationWatts/m^2 W/m2 Conditions
00:00 8.3 °F 5.9 °F 1015.5 in Calm     85 % 0.0 in 0.0 W/m2 RA
00:05 8.3 °F 5.9 °F 1015.5 in Calm     85 % 0.0 in 0.0 W/m2 CLR
00:10 8.3 °F 5.9 °F 1015.5 in Calm     85 % 0.0 in 0.0 W/m2 CLR
00:16 8.3 °F 5.9 °F 1015.5 in Calm     85 % 0.0 in 0.0 W/m2 CLR
00:21 8.3 °F 5.9 °F 1015.5 in Calm     85 % 0.0 in 0.0 W/m2 CLR
00:25 8.3 °F 6.1 °F 1015.5 in Calm     86 % 0.0 in 0.0 W/m2 CLR
00:31 8.3 °F 6.1 °F 1015.5 in Calm     86 % 0.0 in 0.0 W/m2 CLR
00:36 8.3 °F 6.1 °F 1015.5 in Calm     86 % 0.0 in 0.0 W/m2 CLR
00:41 8.9 °F 6.7 °F 1015.5 in Calm     86 % 0.0 in 0.0 W/m2 CLR
00:46 8.9 °F 6.7 °F 1015.5 in Calm     86 % 0.0 in 0.0 W/m2 CLR
00:51 8.9 °F 6.7 °F 1015.5 in Calm     86 % 0.0 in 0.0 W/m2 CLR
00:56 8.9 °F 6.7 °F 1015.5 in Calm     86 % 0.0 in 0.0 W/m2 CLR
00:59 8.9 °F 6.7 °F 1015.5 in Calm     86 % 0.0 in 0.0 W/m2 CLR
01:04 8.9 °F 6.7 °F 1015.5 in Calm     86 % 0.0 in 0.0 W/m2 CLR
01:09 8.9 °F 6.7 °F 1015.5 in Calm     86 % 0.0 in 0.0 W/m2 CLR
01:14 8.9 °F 6.7 °F 1015.5 in Calm     86 % 0.0 in 0.0 W/m2 CLR
01:19 8.9 °F 6.7 °F 1015.1 in Calm     86 % 0.0 in 0.0 W/m2 CLR
01:24 8.9 °F 6.7 °F 1015.1 in Calm     86 % 0.0 in 0.0 W/m2 CLR
01:29 8.9 °F 6.8 °F 1015.1 in Calm     87 % 0.0 in 0.0 W/m2 CLR
01:34 8.9 °F 6.7 °F 1015.1 in Calm     86 % 0.0 in 0.0 W/m2 CLR
01:39 8.9 °F 6.7 °F 1015.1 in Calm     86 % 0.0 in 0.0 W/m2 CLR
01:45 9.4 °F 7.4 °F 1015.1 in Calm     87 % 0.0 in 0.0 W/m2 CLR
01:49 9.4 °F 7.4 °F 1015.1 in Calm     87 % 0.0 in 0.0 W/m2 CLR
01:55 9.4 °F 7.4 °F 1014.8 in Calm     87 % 0.0 in 0.0 W/m2 CLR
02:00 9.4 °F 7.4 °F 1014.8 in Calm     87 % 0.0 in 0.0 W/m2 CLR
02:05 8.9 °F 6.8 °F 1014.8 in Calm     87 % 0.0 in 0.0 W/m2 CLR
02:10 8.9 °F 6.7 °F 1014.8 in Calm     86 % 0.0 in 0.0 W/m2 CLR
02:11 8.9 °F 6.7 °F 1014.8 in Calm     86 % 0.0 in 0.0 W/m2 CLR
02:16 8.9 °F 6.7 °F 1014.8 in Calm     86 % 0.0 in 0.0 W/m2 CLR
02:21 8.3 °F 6.1 °F 1014.8 in Calm     86 % 0.0 in 0.0 W/m2 CLR
02:22 8.3 °F 6.1 °F 1014.8 in Calm     86 % 0.0 in 0.0 W/m2 CLR
02:27 8.3 °F 6.1 °F 1014.8 in Calm     86 % 0.0 in 0.0 W/m2 CLR
02:32 8.3 °F 6.3 °F 1014.8 in Calm     87 % 0.0 in 0.0 W/m2 CLR
02:37 8.3 °F 6.3 °F 1014.8 in Calm     87 % 0.0 in 0.0 W/m2 CLR
02:42 8.3 °F 6.3 °F 1014.8 in Calm     87 % 0.0 in 0.0 W/m2 CLR
02:47 8.3 °F 6.3 °F 1014.8 in Calm     87 % 0.0 in 0.0 W/m2 CLR
02:52 8.3 °F 6.3 °F 1014.4 in Calm     87 % 0.0 in 0.0 W/m2 CLR
02:57 8.3 °F 6.3 °F 1014.4 in Calm     87 % 0.0 in 0.0 W/m2 CLR
03:02 8.3 °F 6.3 °F 1014.4 in Calm     87 % 0.0 in 0.0 W/m2 CLR
03:07 8.3 °F 6.4 °F 1014.4 in Calm     88 % 0.0 in 0.0 W/m2 CLR
03:12 8.9 °F 7.0 °F 1014.4 in Calm     88 % 0.0 in 0.0 W/m2 CLR
03:17 8.9 °F 7.0 °F 1014.4 in Calm     88 % 0.0 in 0.0 W/m2 CLR
03:22 8.9 °F 7.0 °F 1014.4 in Calm     88 % 0.0 in 0.0 W/m2 CLR
03:27 8.9 °F 7.0 °F 1014.4 in Calm     88 % 0.0 in 0.0 W/m2 CLR
03:32 8.9 °F 7.0 °F 1014.4 in Calm     88 % 0.0 in 0.0 W/m2 CLR
03:37 8.9 °F 7.0 °F 1014.1 in Calm     88 % 0.0 in 0.0 W/m2 CLR
03:42 8.9 °F 7.0 °F 1014.1 in Calm     88 % 0.0 in 0.0 W/m2 CLR
03:47 9.4 °F 7.6 °F 1014.1 in Calm     88 % 0.0 in 0.0 W/m2 CLR
03:52 9.4 °F 7.6 °F 1014.1 in Calm     88 % 0.0 in 0.0 W/m2 CLR
03:57 9.4 °F 7.6 °F 1014.1 in Calm     88 % 0.0 in 0.0 W/m2 CLR
04:02 8.9 °F 7.0 °F 1013.8 in Calm     88 % 0.0 in 0.0 W/m2 CLR
04:07 8.9 °F 7.0 °F 1014.1 in Calm     88 % 0.0 in 0.0 W/m2 CLR
04:12 9.4 °F 7.6 °F 1013.8 in Calm     88 % 0.0 in 0.0 W/m2 CLR
04:20 9.4 °F 7.7 °F 1013.8 in Calm     89 % 0.0 in 0.0 W/m2 CLR
04:21 9.4 °F 7.7 °F 1013.8 in Calm     89 % 0.0 in 0.0 W/m2 CLR
04:24 9.4 °F 7.7 °F 1013.8 in Calm     89 % 0.0 in 0.0 W/m2 CLR
04:27 10.0 °F 8.1 °F 1013.8 in Calm     88 % 0.0 in 0.0 W/m2 CLR
04:28 10.0 °F 8.1 °F 1014.1 in Calm     88 % 0.0 in 0.0 W/m2 CLR
04:29 10.0 °F 8.1 °F 1013.8 in Calm     88 % 0.0 in 0.0 W/m2 CLR
04:38 10.0 °F 8.1 °F 1014.1 in SSW 1.9 mph   88 % 0.0 in 0.0 W/m2 CLR
04:43 10.0 °F 8.1 °F 1013.8 in Calm     88 % 0.0 in 0.0 W/m2 CLR
04:48 10.0 °F 8.3 °F 1013.8 in Calm     89 % 0.0 in 0.0 W/m2 CLR
04:53 10.6 °F 8.7 °F 1013.8 in Calm     88 % 0.0 in 0.0 W/m2 CLR
04:58 10.6 °F 8.7 °F 1013.4 in Calm     88 % 0.0 in 0.0 W/m2 CLR
05:03 10.6 °F 8.7 °F 1013.4 in Calm     88 % 0.0 in 0.0 W/m2 CLR
05:08 10.6 °F 8.7 °F 1013.8 in West 5.6 mph 5.6 mph 88 % 0.0 in 0.0 W/m2 CLR
05:13 10.6 °F 8.8 °F 1013.4 in Calm     89 % 0.0 in 0.0 W/m2 CLR
05:18 10.6 °F 8.8 °F 1013.8 in Calm     89 % 0.0 in 0.0 W/m2 CLR
05:23 10.6 °F 8.8 °F 1013.8 in Calm     89 % 0.0 in 0.0 W/m2 CLR
05:28 10.6 °F 8.8 °F 1013.8 in Calm     89 % 0.0 in 0.0 W/m2 CLR
05:33 10.6 °F 8.8 °F 1014.1 in Calm     89 % 0.0 in 0.0 W/m2 CLR
05:38 10.6 °F 9.0 °F 1014.1 in Calm     90 % 0.0 in 0.0 W/m2 CLR
05:43 10.6 °F 9.0 °F 1014.1 in Calm     90 % 0.0 in 0.0 W/m2 CLR
05:48 10.6 °F 9.0 °F 1014.1 in Calm     90 % 0.0 in 0.0 W/m2 CLR
05:53 11.1 °F 9.7 °F 1014.4 in SSW 7.4 mph 7.4 mph 91 % 0.0 in 0.0 W/m2 CLR
05:58 11.1 °F 9.7 °F 1014.4 in Calm     91 % 0.0 in 0.0 W/m2 CLR
06:03 11.1 °F 9.7 °F 1014.4 in SE 6.4 mph 6.4 mph 91 % 0.3 in 0.0 W/m2 RA
06:08 11.1 °F 9.7 °F 1014.4 in South 11.1 mph 11.1 mph 91 % 0.3 in 0.0 W/m2
06:13 11.1 °F 9.7 °F 1014.4 in Calm     91 % 0.3 in 0.0 W/m2 CLR
06:18 11.1 °F 9.7 °F 1014.4 in Calm     91 % 0.3 in 0.0 W/m2 CLR
06:23 11.1 °F 9.8 °F 1014.4 in Calm     92 % 0.3 in 0.0 W/m2 CLR
06:28 11.1 °F 9.7 °F 1014.1 in Calm     91 % 0.3 in 0.0 W/m2 CLR
06:33 11.1 °F 9.7 °F 1014.1 in Calm     91 % 0.3 in 0.0 W/m2 CLR
06:38 11.1 °F 9.7 °F 1013.8 in Calm     91 % 0.3 in 0.0 W/m2 CLR
06:43 11.1 °F 9.7 °F 1013.8 in Calm     91 % 0.3 in 0.0 W/m2 CLR
06:48 11.1 °F 9.7 °F 1013.8 in Calm     91 % 0.3 in 0.0 W/m2 CLR
06:53 11.1 °F 9.7 °F 1013.8 in Calm     91 % 0.3 in 0.0 W/m2 CLR
06:58 11.1 °F 9.7 °F 1013.8 in Calm     91 % 0.3 in 0.0 W/m2 CLR
07:03 11.1 °F 9.7 °F 1013.8 in Calm     91 % 0.0 in 0.0 W/m2 CLR
07:08 11.1 °F 9.7 °F 1013.8 in Calm     91 % 0.0 in 0.0 W/m2 CLR
07:14 11.1 °F 9.7 °F 1013.8 in Calm     91 % 0.0 in 0.0 W/m2 CLR
07:19 11.1 °F 9.7 °F 1013.4 in Calm     91 % 0.0 in 0.0 W/m2 CLR
07:24 11.1 °F 9.7 °F 1013.4 in Calm     91 % 0.0 in 0.0 W/m2 CLR
07:29 11.1 °F 9.8 °F 1013.4 in Calm     92 % 0.0 in 0.0 W/m2 OVC
07:34 11.1 °F 9.8 °F 1013.4 in Calm     92 % 0.0 in 0.0 W/m2 OVC
07:39 11.1 °F 9.8 °F 1013.8 in Calm     92 % 0.0 in 0.0 W/m2 OVC
07:44 11.1 °F 9.8 °F 1013.8 in Calm     92 % 0.0 in 0.0 W/m2 OVC
07:49 11.1 °F 9.8 °F 1013.8 in Calm     92 % 0.0 in 7.0 W/m2 OVC
07:54 11.1 °F 9.8 °F 1013.8 in Calm     92 % 0.0 in 12.0 W/m2 OVC
07:59 11.1 °F 9.8 °F 1013.8 in Calm     92 % 0.0 in 25.0 W/m2 OVC
08:04 10.6 °F 9.2 °F 1013.8 in Calm     91 % 0.0 in 32.0 W/m2 OVC
08:09 10.6 °F 9.2 °F 1014.1 in Calm     91 % 0.0 in 42.0 W/m2 OVC
08:14 10.6 °F 9.3 °F 1014.1 in Calm     92 % 0.0 in 49.0 W/m2 OVC
08:19 10.6 °F 9.3 °F 1014.1 in Calm     92 % 0.0 in 53.0 W/m2 OVC
08:24 10.6 °F 9.3 °F 1014.1 in Calm     92 % 0.0 in 79.0 W/m2 OVC
08:29 10.6 °F 9.3 °F 1014.1 in Calm     92 % 0.0 in 95.0 W/m2 OVC
08:34 10.6 °F 9.3 °F 1014.1 in Calm     92 % 0.0 in 102.0 W/m2 OVC
08:39 10.6 °F 9.3 °F 1014.1 in Calm     92 % 0.0 in 134.0 W/m2 SCT
08:44 11.1 °F 9.7 °F 1014.1 in Calm     91 % 0.0 in 171.0 W/m2 CLR
08:49 11.7 °F 10.2 °F 1014.1 in Calm     91 % 0.0 in 181.0 W/m2 CLR
08:54 12.2 °F 10.4 °F 1014.1 in Calm     89 % 0.0 in 174.0 W/m2 CLR
08:59 12.8 °F 10.8 °F 1014.1 in Calm     88 % 0.0 in 162.0 W/m2 CLR
09:04 12.8 °F 10.8 °F 1014.1 in Calm     88 % 0.0 in 148.0 W/m2 CLR
09:09 12.8 °F 10.7 °F 1014.1 in Calm     87 % 0.0 in 197.0 W/m2 CLR
09:14 13.3 °F 11.1 °F 1014.1 in Calm     86 % 0.0 in 213.0 W/m2 CLR
09:19 13.3 °F 10.9 °F 1014.1 in Calm     85 % 0.0 in 232.0 W/m2 CLR
09:24 13.3 °F 10.7 °F 1014.1 in Calm     84 % 0.0 in 251.0 W/m2 CLR
09:29 13.3 °F 10.5 °F 1014.1 in Calm     83 % 0.0 in 265.0 W/m2 CLR
09:34 13.3 °F 10.2 °F 1014.1 in Calm     81 % 0.0 in 279.0 W/m2 CLR
09:39 13.3 °F 9.9 °F 1014.1 in Calm     80 % 0.0 in 288.0 W/m2 CLR
09:44 13.9 °F 10.5 °F 1014.1 in Calm     80 % 0.0 in 304.0 W/m2 CLR
09:49 13.9 °F 9.9 °F 1014.1 in Calm     77 % 0.0 in 74.0 W/m2 CLR
09:54 13.9 °F 9.9 °F 1014.1 in Calm     77 % 0.0 in 250.0 W/m2 CLR
09:59 13.9 °F 9.9 °F 1014.1 in Calm     77 % 0.0 in 341.0 W/m2 CLR
10:04 14.4 °F 10.4 °F 1014.1 in Calm     77 % 0.0 in 383.0 W/m2 CLR
10:05 14.4 °F 10.3 °F 1014.1 in Calm     76 % 0.0 in 406.0 W/m2 CLR
10:10 16.1 °F 11.7 °F 1014.1 in Calm     75 % 0.0 in 425.0 W/m2 CLR
10:15 16.7 °F 12.2 °F 1014.1 in Calm     75 % 0.0 in 466.0 W/m2 CLR
10:20 17.2 °F 12.3 °F 1014.1 in Calm     73 % 0.0 in 457.0 W/m2 CLR
10:25 17.2 °F 12.1 °F 1014.1 in Calm     72 % 0.0 in 406.0 W/m2 CLR
10:30 17.8 °F 12.4 °F 1014.1 in NW 3.7 mph 3.7 mph 71 % 0.0 in 181.0 W/m2 CLR
10:35 17.8 °F 12.0 °F 1014.1 in Calm     69 % 0.0 in 139.0 W/m2 CLR
10:40 17.8 °F 12.0 °F 1014.1 in Calm     69 % 0.0 in 120.0 W/m2 CLR
10:45 17.8 °F 12.0 °F 1014.1 in Calm     69 % 0.0 in 90.0 W/m2 CLR
10:50 17.8 °F 12.0 °F 1014.4 in Calm     69 % 0.0 in 88.0 W/m2 CLR
10:55 17.8 °F 12.9 °F 1014.4 in WNW 3.2 mph 3.2 mph 73 % 0.0 in 116.0 W/m2 CLR
11:00 17.8 °F 13.3 °F 1014.1 in Calm     75 % 0.0 in 165.0 W/m2 CLR
11:05 17.8 °F 13.7 °F 1014.1 in West 5.6 mph 5.6 mph 77 % 0.0 in 172.0 W/m2 CLR
11:10 17.8 °F 13.9 °F 1014.1 in Calm     78 % 0.0 in 199.0 W/m2 CLR
11:15 17.8 °F 13.9 °F 1014.1 in Calm     78 % 0.0 in 213.0 W/m2 CLR
11:20 17.8 °F 13.9 °F 1014.1 in Calm     78 % 0.0 in 202.0 W/m2 CLR
11:25 17.8 °F 13.9 °F 1014.1 in Calm     78 % 0.0 in 248.0 W/m2 CLR
11:30 17.8 °F 14.1 °F 1014.1 in Calm     79 % 0.0 in 527.0 W/m2 CLR
11:35 18.3 °F 14.2 °F 1014.1 in Calm     77 % 0.0 in 322.0 W/m2 CLR
11:40 18.3 °F 14.2 °F 1014.1 in NNW 14.8 mph 14.8 mph 77 % 0.0 in 622.0 W/m2 CLR
11:45 18.9 °F 14.6 °F 1013.8 in North 7.4 mph 7.4 mph 76 % 0.0 in 624.0 W/m2 CLR
11:50 18.9 °F 14.6 °F 1013.8 in Calm     76 % 0.0 in 577.0 W/m2 CLR
11:55 19.4 °F 15.1 °F 1013.8 in West 9.3 mph 9.3 mph 76 % 0.0 in 615.0 W/m2 CLR
12:00 19.4 °F 14.5 °F 1013.4 in NNW 1.6 mph 2.6 mph 73 % 0.0 in 534.0 W/m2 CLR
12:05 19.4 °F 14.1 °F 1013.4 in Calm     71 % 0.0 in 480.0 W/m2 CLR
12:10 18.9 °F 13.5 °F 1013.4 in Calm     71 % 0.0 in 260.0 W/m2 CLR
12:16 18.9 °F 13.3 °F 1013.4 in North 9.3 mph 10.8 mph 70 % 0.0 in 401.0 W/m2 CLR
12:21 19.4 °F 13.8 °F 1013.4 in North 13.0 mph 13.0 mph 70 % 0.0 in 642.0 W/m2 CLR
12:26 19.4 °F 13.6 °F 1013.1 in NNW 1.6 mph   69 % 0.0 in 387.0 W/m2 CLR
12:31 19.4 °F 13.6 °F 1013.1 in NNW 11.1 mph 11.1 mph 69 % 0.0 in 274.0 W/m2 CLR
12:36 19.4 °F 13.8 °F 1013.1 in NNW 7.4 mph 7.4 mph 70 % 0.0 in 258.0 W/m2 CLR
12:41 19.4 °F 13.8 °F 1013.1 in NW 1.9 mph 1.9 mph 70 % 0.0 in 253.0 W/m2 CLR
12:46 19.4 °F 13.4 °F 1013.1 in NW 3.7 mph   68 % 0.0 in 272.0 W/m2 CLR
12:51 19.4 °F 13.4 °F 1012.8 in NNW 5.6 mph 5.6 mph 68 % 0.0 in 332.0 W/m2 CLR
12:56 19.4 °F 12.2 °F 1012.8 in WNW 13.0 mph 13.0 mph 63 % 0.0 in 311.0 W/m2 CLR
13:01 19.4 °F 12.2 °F 1012.8 in West 13.0 mph 13.0 mph 63 % 0.0 in 264.0 W/m2 CLR
13:06 19.4 °F 11.5 °F 1012.8 in WNW 13.0 mph 13.0 mph 60 % 0.0 in 299.0 W/m2 CLR
13:11 19.4 °F 11.2 °F 1012.8 in WNW 14.8 mph 14.8 mph 59 % 0.0 in 320.0 W/m2 CLR
13:16 19.4 °F 10.9 °F 1012.4 in West 13.0 mph 13.0 mph 58 % 0.0 in 309.0 W/m2 CLR
13:21 19.4 °F 12.2 °F 1012.4 in West 5.6 mph 5.6 mph 63 % 0.0 in 272.0 W/m2 CLR
13:26 19.4 °F 11.2 °F 1012.4 in WNW 13.0 mph 13.0 mph 59 % 0.0 in 302.0 W/m2 CLR
13:31 19.4 °F 11.2 °F 1012.4 in NW 13.0 mph 13.0 mph 59 % 0.0 in 269.0 W/m2 CLR
13:36 19.4 °F 11.5 °F 1012.4 in West 9.3 mph 9.3 mph 60 % 0.0 in 253.0 W/m2 CLR
13:41 19.4 °F 10.9 °F 1012.1 in WSW 5.6 mph 5.6 mph 58 % 0.0 in 244.0 W/m2 CLR
13:46 19.4 °F 11.2 °F 1012.1 in West 9.3 mph 9.3 mph 59 % 0.0 in 255.0 W/m2 CLR
13:47 19.4 °F 11.2 °F 1012.1 in WNW 9.7 mph 9.7 mph 59 % 0.0 in 260.0 W/m2 CLR
13:52 19.4 °F 10.7 °F 1012.1 in West 5.6 mph 5.6 mph 57 % 0.0 in 308.0 W/m2 CLR
13:57 19.4 °F 10.9 °F 1012.1 in WNW 5.6 mph 5.6 mph 58 % 0.0 in 343.0 W/m2 CLR
14:02 19.4 °F 11.2 °F 1012.1 in WNW 12.9 mph 12.9 mph 59 % 0.0 in 403.0 W/m2 CLR
14:07 20.0 °F 11.5 °F 1012.1 in WNW 9.3 mph 9.3 mph 58 % 0.0 in 483.0 W/m2 CLR
14:12 20.0 °F 11.5 °F 1011.7 in West 5.6 mph 5.6 mph 58 % 0.0 in 316.0 W/m2 CLR
14:17 19.4 °F 10.7 °F 1011.7 in WNW 11.1 mph 11.1 mph 57 % 0.0 in 308.0 W/m2 CLR
14:22 19.4 °F 10.7 °F 1011.7 in WNW 14.8 mph 14.8 mph 57 % 0.0 in 227.0 W/m2 CLR
14:27 19.4 °F 10.7 °F 1011.7 in West 5.6 mph   57 % 0.0 in 239.0 W/m2 CLR
14:32 19.4 °F 10.7 °F 1011.7 in NW 7.4 mph 7.4 mph 57 % 0.0 in 221.0 W/m2 CLR
14:37 19.4 °F 10.7 °F 1011.7 in NW 7.4 mph 7.4 mph 57 % 0.0 in 207.0 W/m2 CLR
14:42 19.4 °F 10.7 °F 1011.7 in WNW 8.0 mph 8.0 mph 57 % 0.0 in 197.0 W/m2 CLR
14:47 19.4 °F 10.4 °F 1011.4 in West 5.6 mph 5.6 mph 56 % 0.0 in 188.0 W/m2 CLR
14:52 18.9 °F 10.2 °F 1011.4 in WNW 5.6 mph 5.6 mph 57 % 0.0 in 221.0 W/m2 CLR
14:57 19.4 °F 11.2 °F 1011.7 in WNW 11.3 mph 11.3 mph 59 % 0.0 in 434.0 W/m2 CLR
15:02 19.4 °F 10.7 °F 1011.7 in NW 13.0 mph 13.0 mph 57 % 0.0 in 230.0 W/m2 CLR
15:07 19.4 °F 10.2 °F 1011.7 in West 16.7 mph 16.7 mph 55 % 0.0 in 271.0 W/m2 CLR
15:12 18.9 °F 9.9 °F 1011.7 in NW 14.8 mph 14.8 mph 56 % 0.0 in 190.0 W/m2 CLR
15:17 18.9 °F 10.2 °F 1011.7 in West 5.6 mph   57 % 0.0 in 290.0 W/m2 CLR
15:22 19.4 °F 10.2 °F 1011.4 in WNW 14.8 mph 14.8 mph 55 % 0.0 in 401.0 W/m2 CLR
15:27 19.4 °F 10.4 °F 1011.4 in WNW 13.0 mph 13.0 mph 56 % 0.0 in 232.0 W/m2 CLR
15:32 19.4 °F 10.2 °F 1011.4 in West 5.6 mph   55 % 0.0 in 294.0 W/m2 CLR
15:37 19.4 °F 10.4 °F 1011.4 in NW 4.8 mph 4.8 mph 56 % 0.0 in 285.0 W/m2 CLR
15:42 19.4 °F 10.2 °F 1011.4 in West 5.6 mph 5.6 mph 55 % 0.0 in 258.0 W/m2 CLR
15:47 19.4 °F 10.4 °F 1011.4 in NW 11.1 mph 11.1 mph 56 % 0.0 in 141.0 W/m2 CLR
15:52 18.9 °F 9.9 °F 1011.4 in WNW 14.8 mph 14.8 mph 56 % 0.0 in 257.0 W/m2 CLR
15:57 18.9 °F 9.9 °F 1011.4 in WNW 11.1 mph 11.1 mph 56 % 0.0 in 139.0 W/m2 CLR
16:02 18.9 °F 10.4 °F 1011.4 in WNW 14.8 mph 14.8 mph 58 % 0.0 in 130.0 W/m2 CLR
16:07 18.9 °F 10.4 °F 1011.4 in WNW 14.8 mph 14.8 mph 58 % 0.0 in 97.0 W/m2 CLR
16:12 18.9 °F 10.7 °F 1011.4 in WNW 4.8 mph 4.8 mph 59 % 0.0 in 72.0 W/m2 CLR
16:17 18.9 °F 10.7 °F 1011.4 in WNW 11.1 mph 11.1 mph 59 % 0.0 in 76.0 W/m2 FEW
16:22 18.9 °F 11.2 °F 1011.4 in WNW 11.1 mph 11.1 mph 61 % 0.0 in 162.0 W/m2 CLR
16:27 18.9 °F 11.2 °F 1011.4 in Calm     61 % 0.0 in 83.0 W/m2 CLR
16:32 18.9 °F 11.4 °F 1011.4 in West 13.0 mph 13.0 mph 62 % 0.0 in 79.0 W/m2 CLR
16:37 18.3 °F 11.2 °F 1011.7 in WSW 11.1 mph 11.1 mph 63 % 0.0 in 79.0 W/m2 FEW
16:42 18.3 °F 11.4 °F 1011.7 in West 9.3 mph 9.3 mph 64 % 0.0 in 58.0 W/m2 FEW
16:47 18.3 °F 11.6 °F 1011.7 in West 6.4 mph 6.4 mph 65 % 0.0 in 40.0 W/m2 SCT
16:52 18.3 °F 11.9 °F 1011.7 in West 9.3 mph 9.3 mph 66 % 0.0 in 30.0 W/m2 BKN
16:57 18.3 °F 12.1 °F 1011.7 in West 5.6 mph 5.6 mph 67 % 0.0 in 25.0 W/m2 BKN
17:02 18.3 °F 12.3 °F 1012.1 in WSW 8.0 mph 8.0 mph 68 % 0.0 in 18.0 W/m2 BKN
17:08 18.3 °F 12.6 °F 1012.1 in WSW 14.8 mph 14.8 mph 69 % 0.0 in 12.0 W/m2 BKN
17:13 18.3 °F 12.8 °F 1011.7 in WSW 7.4 mph 7.4 mph 70 % 0.0 in 11.0 W/m2 BKN
17:18 18.3 °F 13.0 °F 1011.7 in SW 11.1 mph 11.1 mph 71 % 0.0 in 9.0 W/m2 BKN
17:23 17.8 °F 12.7 °F 1011.7 in SW 14.8 mph 14.8 mph 72 % 0.0 in 5.0 W/m2 BKN
17:28 17.8 °F 12.9 °F 1012.1 in SW 44.4 mph 44.4 mph 73 % 0.3 in 5.0 W/m2 RA
17:33 16.1 °F 12.3 °F 1012.1 in SW 27.4 mph 27.4 mph 78 % 2.0 in 7.0 W/m2 RA
17:38 15.0 °F 11.4 °F 1012.4 in SW 24.1 mph 24.1 mph 79 % 2.3 in 5.0 W/m2 RA
17:43 15.0 °F 11.6 °F 1012.1 in SSW 22.2 mph 22.2 mph 80 % 2.3 in 0.0 W/m2 CLR
17:45 14.4 °F 11.1 °F 1012.1 in SSW 25.9 mph 25.9 mph 80 % 2.3 in 0.0 W/m2 CLR
17:50 14.4 °F 11.1 °F 1012.1 in SSW 27.8 mph 27.8 mph 80 % 2.3 in 0.0 W/m2 OVC
17:55 14.4 °F 11.2 °F 1012.1 in SSW 27.8 mph 27.8 mph 81 % 2.3 in 0.0 W/m2 OVC
18:00 13.9 °F 11.1 °F 1012.4 in SSW 25.9 mph 25.9 mph 83 % 2.3 in 0.0 W/m2 OVC
18:05 13.9 °F 11.1 °F 1012.4 in SSW 20.4 mph 20.4 mph 83 % 2.3 in 0.0 W/m2 CLR
18:10 13.9 °F 11.2 °F 1012.4 in SSW 5.6 mph 5.6 mph 84 % 2.3 in 0.0 W/m2 CLR
18:15 13.9 °F 11.2 °F 1012.8 in Calm     84 % 2.3 in 0.0 W/m2 CLR
18:20 13.9 °F 11.4 °F 1012.8 in Calm     85 % 2.3 in 0.0 W/m2 CLR
18:25 13.3 °F 10.9 °F 1013.1 in Calm     85 % 2.3 in 0.0 W/m2 CLR
18:30 13.3 °F 11.1 °F 1013.1 in Calm     86 % 1.0 in 0.0 W/m2 CLR
18:35 13.3 °F 10.9 °F 1013.1 in Calm     85 % 0.0 in 0.0 W/m2 CLR
18:40 13.3 °F 11.1 °F 1013.1 in Calm     86 % 0.0 in 0.0 W/m2 CLR
18:45 13.3 °F 11.1 °F 1013.4 in Calm     86 % 0.0 in 0.0 W/m2 CLR
18:50 13.3 °F 11.1 °F 1013.4 in Calm     86 % 0.0 in 0.0 W/m2 CLR
18:55 13.3 °F 11.1 °F 1013.4 in Calm     86 % 0.0 in 0.0 W/m2 CLR
19:00 13.3 °F 10.9 °F 1013.4 in Calm     85 % 0.0 in 0.0 W/m2 CLR
19:05 13.3 °F 11.1 °F 1013.8 in Calm     86 % 0.0 in 0.0 W/m2 CLR
19:10 12.8 °F 10.5 °F 1013.4 in Calm     86 % 0.0 in 0.0 W/m2 CLR
19:15 12.8 °F 10.7 °F 1013.8 in Calm     87 % 0.0 in 0.0 W/m2 CLR
19:20 12.8 °F 10.8 °F 1013.8 in Calm     88 % 0.0 in 0.0 W/m2 CLR
19:25 12.8 °F 10.7 °F 1013.8 in Calm     87 % 0.0 in 0.0 W/m2 CLR
19:30 12.8 °F 10.7 °F 1013.8 in Calm     87 % 0.0 in 0.0 W/m2 CLR
19:35 13.3 °F 11.2 °F 1013.8 in Calm     87 % 0.0 in 0.0 W/m2 CLR
19:40 13.3 °F 11.2 °F 1013.8 in Calm     87 % 0.0 in 0.0 W/m2 CLR
19:45 13.3 °F 11.2 °F 1013.8 in Calm     87 % 0.0 in 0.0 W/m2 CLR
19:50 12.8 °F 10.7 °F 1013.8 in Calm     87 % 0.0 in 0.0 W/m2 CLR
19:55 12.8 °F 10.7 °F 1013.8 in Calm     87 % 0.0 in 0.0 W/m2 CLR
20:00 12.8 °F 10.7 °F 1013.8 in Calm     87 % 0.0 in 0.0 W/m2 CLR
20:05 12.8 °F 10.8 °F 1013.8 in Calm     88 % 0.0 in 0.0 W/m2 CLR
20:10 12.8 °F 10.8 °F 1013.8 in Calm     88 % 0.0 in 0.0 W/m2 CLR
20:15 12.8 °F 10.8 °F 1014.1 in Calm     88 % 0.0 in 0.0 W/m2 CLR
20:20 12.8 °F 10.8 °F 1014.1 in Calm     88 % 0.0 in 0.0 W/m2 CLR
20:25 12.8 °F 11.0 °F 1013.8 in Calm     89 % 0.0 in 0.0 W/m2 CLR
20:26 12.8 °F 11.0 °F 1013.8 in Calm     89 % 0.0 in 0.0 W/m2 CLR
20:31 12.2 °F 10.4 °F 1013.8 in Calm     89 % 0.0 in 0.0 W/m2 CLR
20:36 12.2 °F 10.4 °F 1014.1 in Calm     89 % 0.0 in 0.0 W/m2 CLR
20:41 12.2 °F 10.4 °F 1014.1 in Calm     89 % 0.0 in 0.0 W/m2 CLR
20:46 12.2 °F 10.4 °F 1014.1 in Calm     89 % 0.0 in 0.0 W/m2 CLR
20:51 12.2 °F 10.6 °F 1014.1 in Calm     90 % 0.0 in 0.0 W/m2 CLR
20:56 12.2 °F 10.4 °F 1014.1 in Calm     89 % 0.0 in 0.0 W/m2 CLR
21:01 12.2 °F 9.6 °F 1014.1 in SSW 11.1 mph 11.1 mph 84 % 0.0 in 0.0 W/m2 CLR
21:06 12.2 °F 9.1 °F 1014.1 in SSW 5.6 mph 5.6 mph 81 % 0.0 in 0.0 W/m2 CLR
21:11 12.2 °F 8.5 °F 1014.1 in SSW 14.8 mph 14.8 mph 78 % 0.0 in 0.0 W/m2 CLR
21:16 12.2 °F 7.9 °F 1014.1 in South 7.4 mph 7.4 mph 75 % 0.0 in 0.0 W/m2 CLR
21:21 12.2 °F 7.5 °F 1014.1 in SSW 14.8 mph 14.8 mph 73 % 0.0 in 0.0 W/m2 CLR
21:26 12.2 °F 7.5 °F 1014.4 in SSW 9.7 mph 9.7 mph 73 % 0.0 in 0.0 W/m2 CLR
21:31 12.2 °F 7.5 °F 1014.4 in SSW 12.9 mph 12.9 mph 73 % 0.0 in 0.0 W/m2 CLR
21:36 12.2 °F 7.3 °F 1014.4 in SSW 14.8 mph 14.8 mph 72 % 0.0 in 0.0 W/m2 CLR
21:41 12.2 °F 7.3 °F 1014.4 in SSW 13.0 mph 13.0 mph 72 % 0.0 in 0.0 W/m2 CLR
21:46 12.2 °F 7.3 °F 1014.4 in SSW 14.8 mph 14.8 mph 72 % 0.0 in 0.0 W/m2 CLR
21:51 12.2 °F 7.3 °F 1014.8 in South 16.7 mph 16.7 mph 72 % 0.0 in 0.0 W/m2 CLR
21:56 12.2 °F 7.5 °F 1014.4 in SSW 18.5 mph 18.5 mph 73 % 0.0 in 0.0 W/m2 CLR
22:01 12.8 °F 8.1 °F 1014.8 in SSW 18.5 mph 18.5 mph 73 % 0.0 in 0.0 W/m2 CLR
22:06 13.3 °F 8.6 °F 1014.8 in SSW 18.5 mph 18.5 mph 73 % 0.0 in 0.0 W/m2 CLR
22:11 13.3 °F 8.6 °F 1014.8 in SW 20.4 mph 20.4 mph 73 % 0.0 in 0.0 W/m2 CLR
22:16 13.3 °F 8.8 °F 1014.8 in SSW 18.5 mph 18.5 mph 74 % 0.0 in 0.0 W/m2 CLR
22:21 13.3 °F 9.0 °F 1014.8 in SW 18.5 mph 18.5 mph 75 % 0.0 in 0.0 W/m2 CLR
22:26 13.3 °F 9.2 °F 1015.1 in SW 22.2 mph 22.2 mph 76 % 0.0 in 0.0 W/m2 CLR
22:31 13.3 °F 9.4 °F 1015.1 in SSW 24.1 mph 24.1 mph 77 % 0.0 in 0.0 W/m2 CLR
22:36 13.3 °F 9.6 °F 1015.1 in SW 18.5 mph 18.5 mph 78 % 0.0 in 0.0 W/m2 CLR
22:41 13.3 °F 9.8 °F 1015.1 in SSW 22.2 mph 22.2 mph 79 % 0.0 in 0.0 W/m2 CLR
22:42 13.3 °F 9.9 °F 1015.1 in SW 22.5 mph 22.5 mph 80 % 0.0 in 0.0 W/m2 CLR
22:47 13.3 °F 10.2 °F 1015.1 in SW 22.2 mph 22.2 mph 81 % 0.0 in 0.0 W/m2 CLR
22:52 13.3 °F 10.2 °F 1015.1 in SW 20.4 mph 20.4 mph 81 % 0.0 in 0.0 W/m2 CLR
22:57 13.3 °F 10.2 °F 1015.1 in SSW 18.5 mph 18.5 mph 81 % 0.0 in 0.0 W/m2 CLR
23:02 13.3 °F 10.3 °F 1015.1 in SW 22.2 mph 22.2 mph 82 % 0.0 in 0.0 W/m2 CLR
23:07 13.3 °F 10.3 °F 1014.8 in SSW 25.9 mph 25.9 mph 82 % 0.0 in 0.0 W/m2 CLR
23:12 13.3 °F 10.5 °F 1014.8 in SSW 27.8 mph 27.8 mph 83 % 0.0 in 0.0 W/m2 CLR
23:17 13.3 °F 10.7 °F 1014.8 in SSW 18.5 mph 18.5 mph 84 % 0.0 in 0.0 W/m2 CLR
23:22 12.8 °F 10.2 °F 1014.8 in SSW 18.5 mph 18.5 mph 84 % 0.0 in 0.0 W/m2 CLR
23:27 12.8 °F 10.3 °F 1014.8 in South 18.5 mph 18.5 mph 85 % 0.0 in 0.0 W/m2 CLR
23:32 12.8 °F 10.5 °F 1014.8 in SSW 20.4 mph 20.4 mph 86 % 0.0 in 0.0 W/m2 CLR
23:35 12.8 °F 10.5 °F 1014.8 in SSW 20.4 mph 20.4 mph 86 % 0.0 in 0.0 W/m2 CLR
23:40 12.8 °F 10.3 °F 1014.8 in SSW 24.1 mph 24.1 mph 85 % 0.0 in 0.0 W/m2 CLR
23:45 12.8 °F 10.2 °F 1014.8 in SSW 19.3 mph 19.3 mph 84 % 0.0 in 0.0 W/m2 CLR
23:50 13.3 °F 10.7 °F 1014.8 in SW 25.9 mph 25.9 mph 84 % 0.0 in 0.0 W/m2 CLR
23:55 13.3 °F 10.7 °F 1014.8 in SW 29.6 mph 29.6 mph 84 % 0.0 in 0.0 W/m2 CLR
Lo Temps de Massalio
Compliments of Weather Underground - 1.25 mb